User: anonymous
Location: NJAA Observatory
(40.6819°N, 74.8979°W)
Time: 08:07:34
(UTC-04:00)
Language:

Landsat 5 - Orbit

View from above orbital plane
View from above orbital plane
View from above satellite
View from above satellite

Ground track
Ground track

The orbit data is extracted from the following two-line orbital elements,

1 14780U 84021A   14263.78635487  .00002402  00000-0  24182-3 0  4352
2 14780 098.0502 342.7216 0094888 218.7302 253.2976 14.88896792626843
Epoch (UTC): 20 September 2014 18:52:21
Eccentricity: 0.0094888
inclination: 98.0502°
perigee height: 535 km
apogee height: 667 km
right ascension of ascending node: 342.7216°
argument of perigee: 218.7302°
revolutions per day: 14.88896792
mean anomaly at epoch: 253.2976°
orbit number at epoch: 62684

The dashed part of the orbit path shows where the satellite is in the earth's shadow,  

DLR